Time,TemperatureF,DewpointF,PressureIn,WindDirection,WindDirectionDegrees,WindSpeedMPH,WindSpeedGustMPH,Humidity,HourlyPrecipIn,Conditions,Clouds,dailyrainin,SolarRadiationWatts/m^2,SoftwareType,DateUTC
2013-03-18 00:02:00,46.9,43.9,30.02,SW,215,3.0,13.0,89,0.00,,,0.00,0.0,meteohub,2013-03-18 07:02:00,
2013-03-18 00:07:00,46.9,43.9,30.02,SW,231,0.0,11.0,89,0.00,,,0.00,0.0,meteohub,2013-03-18 07:07:00,
2013-03-18 00:12:00,46.8,43.7,30.02,SW,234,0.0,10.0,89,0.00,,,0.00,0.0,meteohub,2013-03-18 07:12:00,
2013-03-18 00:17:00,46.8,43.7,30.02,WSW,240,2.0,8.0,89,0.00,,,0.00,0.0,meteohub,2013-03-18 07:17:00,
2013-03-18 00:22:00,46.8,44.1,30.02,West,261,0.0,6.0,90,0.00,,,0.00,0.0,meteohub,2013-03-18 07:22:00,
2013-03-18 00:27:00,46.8,44.1,30.02,WSW,254,0.0,6.0,90,0.00,,,0.00,0.0,meteohub,2013-03-18 07:27:00,
2013-03-18 00:32:00,46.8,44.1,30.02,WSW,243,0.0,4.0,90,0.00,,,0.00,0.0,meteohub,2013-03-18 07:32:00,
2013-03-18 00:37:00,46.8,44.1,30.02,West,274,1.0,4.0,90,0.00,,,0.00,0.0,meteohub,2013-03-18 07:37:00,
2013-03-18 00:42:00,46.8,44.1,30.02,WSW,250,1.0,4.0,90,0.00,,,0.00,0.0,meteohub,2013-03-18 07:42:00,
2013-03-18 00:47:00,46.6,43.9,30.01,WSW,250,1.0,5.0,90,0.00,,,0.00,0.0,meteohub,2013-03-18 07:47:00,
2013-03-18 00:52:00,46.6,43.9,30.01,West,270,1.0,5.0,90,0.00,,,0.00,0.0,meteohub,2013-03-18 07:52:00,
2013-03-18 00:57:00,46.6,43.9,30.01,WSW,252,1.0,5.0,90,0.00,,,0.00,0.0,meteohub,2013-03-18 07:57:00,
2013-03-18 01:02:00,46.4,43.9,30.01,WSW,258,2.0,6.0,91,0.00,,,0.00,0.0,meteohub,2013-03-18 08:02:00,
2013-03-18 01:07:00,46.6,44.1,30.01,West,261,2.0,6.0,91,0.00,,,0.00,0.0,meteohub,2013-03-18 08:07:00,
2013-03-18 01:12:00,46.6,44.1,30.01,WNW,298,0.0,6.0,91,0.00,,,0.00,0.0,meteohub,2013-03-18 08:12:00,
2013-03-18 01:17:00,46.6,44.1,30.01,WNW,283,0.0,6.0,91,0.00,,,0.00,0.0,meteohub,2013-03-18 08:17:00,
2013-03-18 01:22:00,46.6,44.1,30.02,WSW,248,3.0,6.0,91,0.00,,,0.00,0.0,meteohub,2013-03-18 08:22:00,
2013-03-18 01:28:00,46.6,44.1,30.02,WSW,238,0.0,6.0,91,0.00,,,0.00,0.0,meteohub,2013-03-18 08:28:00,
2013-03-18 01:33:00,46.4,44.2,30.02,WSW,240,2.0,6.0,92,0.00,,,0.00,0.0,meteohub,2013-03-18 08:33:00,
2013-03-18 01:38:00,46.4,44.2,30.02,West,268,1.0,4.0,92,0.00,,,0.00,0.0,meteohub,2013-03-18 08:38:00,
2013-03-18 01:43:00,46.4,44.2,30.02,West,265,0.0,4.0,92,0.00,,,0.00,0.0,meteohub,2013-03-18 08:43:00,
2013-03-18 01:48:00,46.4,44.2,30.02,West,279,3.0,4.0,92,0.00,,,0.00,0.0,meteohub,2013-03-18 08:48:00,
2013-03-18 01:53:00,46.4,44.2,30.02,WNW,294,3.0,4.0,92,0.00,,,0.00,0.0,meteohub,2013-03-18 08:53:00,
2013-03-18 01:58:00,46.6,44.4,30.02,WNW,285,3.0,4.0,92,0.00,,,0.00,0.0,meteohub,2013-03-18 08:58:00,
2013-03-18 02:03:00,46.6,44.1,30.01,West,280,0.0,4.0,91,0.00,,,0.00,0.0,meteohub,2013-03-18 09:03:00,
2013-03-18 02:08:00,46.6,44.1,30.01,WNW,290,3.0,4.0,91,0.00,,,0.00,0.0,meteohub,2013-03-18 09:08:00,
2013-03-18 02:13:00,46.6,44.1,30.01,NW,304,2.0,4.0,91,0.00,,,0.00,0.0,meteohub,2013-03-18 09:13:00,
2013-03-18 02:18:00,46.6,44.1,30.01,NW,307,5.0,5.0,91,0.00,,,0.00,0.0,meteohub,2013-03-18 09:18:00,
2013-03-18 02:23:00,46.6,44.1,30.01,WNW,301,3.0,5.0,91,0.00,,,0.00,0.0,meteohub,2013-03-18 09:23:00,
2013-03-18 02:28:00,46.6,43.9,30.01,WNW,302,1.0,5.0,90,0.00,,,0.00,0.0,meteohub,2013-03-18 09:28:00,
2013-03-18 02:33:00,46.9,44.2,30.01,WNW,302,1.0,5.0,90,0.00,,,0.00,0.0,meteohub,2013-03-18 09:33:00,
2013-03-18 02:38:00,47.1,44.1,30.01,WNW,302,1.0,4.0,89,0.00,,,0.00,0.0,meteohub,2013-03-18 09:38:00,
2013-03-18 02:43:00,47.5,44.1,30.01,WNW,293,2.0,3.0,88,0.00,,,0.00,0.0,meteohub,2013-03-18 09:43:00,
2013-03-18 02:48:00,47.7,43.7,30.01,WNW,292,2.0,3.0,86,0.00,,,0.00,0.0,meteohub,2013-03-18 09:48:00,
2013-03-18 02:53:00,47.5,43.5,30.01,WNW,284,4.0,4.0,86,0.00,,,0.00,0.0,meteohub,2013-03-18 09:53:00,
2013-03-18 02:58:00,47.3,43.3,30.01,West,281,4.0,7.0,86,0.00,,,0.00,0.0,meteohub,2013-03-18 09:58:00,
2013-03-18 03:03:00,46.9,43.5,30.01,WNW,291,6.0,7.0,88,0.00,,,0.00,0.0,meteohub,2013-03-18 10:03:00,
2013-03-18 03:08:00,46.8,43.7,30.00,WNW,284,2.0,8.0,89,0.00,,,0.00,0.0,meteohub,2013-03-18 10:08:00,
2013-03-18 03:13:00,46.6,43.9,30.00,West,268,3.0,8.0,90,0.00,,,0.00,0.0,meteohub,2013-03-18 10:13:00,
2013-03-18 03:18:00,46.6,44.1,30.00,WNW,288,2.0,8.0,91,0.00,,,0.00,0.0,meteohub,2013-03-18 10:18:00,
2013-03-18 03:23:00,46.4,43.9,30.00,WSW,256,2.0,7.0,91,0.00,,,0.00,0.0,meteohub,2013-03-18 10:23:00,
2013-03-18 03:28:00,46.2,44.1,30.00,WSW,248,2.0,7.0,92,0.00,,,0.00,0.0,meteohub,2013-03-18 10:28:00,
2013-03-18 03:33:00,46.2,44.1,29.99,West,269,0.0,7.0,92,0.00,,,0.00,0.0,meteohub,2013-03-18 10:33:00,
2013-03-18 03:38:00,46.2,44.1,29.99,WNW,283,3.0,7.0,92,0.00,,,0.00,0.0,meteohub,2013-03-18 10:38:00,
2013-03-18 03:43:00,46.2,44.2,29.99,WNW,288,4.0,7.0,93,0.00,,,0.00,0.0,meteohub,2013-03-18 10:43:00,
2013-03-18 03:48:00,46.2,44.2,29.99,West,262,2.0,5.0,93,0.00,,,0.00,0.0,meteohub,2013-03-18 10:48:00,
2013-03-18 03:53:00,46.2,44.2,29.99,West,259,1.0,5.0,93,0.00,,,0.00,0.0,meteohub,2013-03-18 10:53:00,
2013-03-18 03:58:00,46.0,44.1,29.99,West,262,1.0,5.0,93,0.00,,,0.00,0.0,meteohub,2013-03-18 10:58:00,
2013-03-18 04:03:00,46.0,44.1,29.99,West,263,0.0,3.0,93,0.00,,,0.00,0.0,meteohub,2013-03-18 11:03:00,
2013-03-18 04:08:00,46.0,44.1,29.99,West,263,1.0,2.0,93,0.00,,,0.00,0.0,meteohub,2013-03-18 11:08:00,
2013-03-18 04:13:00,46.0,44.1,29.99,West,263,1.0,2.0,93,0.00,,,0.00,0.0,meteohub,2013-03-18 11:13:00,
2013-03-18 04:18:00,46.0,44.4,29.99,West,264,0.0,2.0,94,0.00,,,0.00,0.0,meteohub,2013-03-18 11:18:00,
2013-03-18 04:23:00,46.0,44.4,29.98,West,266,0.0,2.0,94,0.00,,,0.00,0.0,meteohub,2013-03-18 11:23:00,
2013-03-18 04:28:00,46.0,44.1,29.98,WSW,241,1.0,3.0,93,0.00,,,0.00,0.0,meteohub,2013-03-18 11:28:00,
2013-03-18 04:33:00,46.0,44.4,29.99,WSW,254,1.0,5.0,94,0.00,,,0.00,0.0,meteohub,2013-03-18 11:33:00,
2013-03-18 04:38:00,45.9,44.2,29.99,West,267,0.0,5.0,94,0.00,,,0.00,0.0,meteohub,2013-03-18 11:38:00,
2013-03-18 04:43:00,45.9,44.2,29.99,West,272,1.0,5.0,94,0.00,,,0.00,0.0,meteohub,2013-03-18 11:43:00,
2013-03-18 04:48:00,45.9,44.2,29.99,WSW,257,1.0,5.0,94,0.00,,,0.00,0.0,meteohub,2013-03-18 11:48:00,
2013-03-18 04:53:00,45.9,43.9,29.99,WSW,243,2.0,5.0,93,0.00,,,0.00,0.0,meteohub,2013-03-18 11:53:00,
2013-03-18 04:59:00,45.7,43.7,29.99,WSW,246,0.0,5.0,93,0.00,,,0.00,0.0,meteohub,2013-03-18 11:59:00,
2013-03-18 05:04:00,45.7,43.7,29.99,WSW,248,2.0,4.0,93,0.00,,,0.00,0.0,meteohub,2013-03-18 12:04:00,
2013-03-18 05:09:00,45.7,43.7,29.99,WSW,248,1.0,6.0,93,0.00,,,0.00,0.0,meteohub,2013-03-18 12:09:00,
2013-03-18 05:14:00,45.7,43.7,30.00,West,259,0.0,6.0,93,0.00,,,0.00,0.0,meteohub,2013-03-18 12:14:00,
2013-03-18 05:19:00,45.7,44.1,30.00,West,276,2.0,6.0,94,0.00,,,0.00,0.0,meteohub,2013-03-18 12:19:00,
2013-03-18 05:24:00,45.7,44.1,29.99,WNW,283,4.0,6.0,94,0.00,,,0.00,0.0,meteohub,2013-03-18 12:24:00,
2013-03-18 05:29:00,45.7,44.1,30.00,WSW,244,7.0,11.0,94,0.00,,,0.00,0.0,meteohub,2013-03-18 12:29:00,
2013-03-18 05:34:00,45.7,44.1,30.00,WSW,238,5.0,11.0,94,0.00,,,0.00,0.0,meteohub,2013-03-18 12:34:00,
2013-03-18 05:39:00,45.7,44.1,30.00,WSW,249,5.0,11.0,94,0.00,,,0.00,0.0,meteohub,2013-03-18 12:39:00,
2013-03-18 05:44:00,45.7,44.1,30.00,SW,231,5.0,9.0,94,0.00,,,0.00,0.0,meteohub,2013-03-18 12:44:00,
2013-03-18 05:49:00,45.9,44.2,30.00,WSW,249,3.0,9.0,94,0.00,,,0.00,0.0,meteohub,2013-03-18 12:49:00,
2013-03-18 05:54:00,45.9,44.2,29.99,SW,235,4.0,10.0,94,0.00,,,0.00,0.0,meteohub,2013-03-18 12:54:00,
2013-03-18 05:59:00,45.9,44.2,29.99,SW,219,3.0,10.0,94,0.00,,,0.00,0.0,meteohub,2013-03-18 12:59:00,
2013-03-18 06:04:00,45.7,44.1,29.99,WSW,243,8.0,10.0,94,0.00,,,0.00,0.0,meteohub,2013-03-18 13:04:00,
2013-03-18 06:09:00,45.7,44.1,30.00,SW,222,2.0,9.0,94,0.00,,,0.00,0.0,meteohub,2013-03-18 13:09:00,
2013-03-18 06:14:00,45.7,44.1,29.99,WSW,237,2.0,9.0,94,0.00,,,0.00,0.0,meteohub,2013-03-18 13:14:00,
2013-03-18 06:19:00,45.7,44.1,30.00,WSW,240,2.0,9.0,94,0.00,,,0.00,0.0,meteohub,2013-03-18 13:19:00,
2013-03-18 06:24:00,45.5,43.9,30.00,WSW,253,0.0,7.0,94,0.00,,,0.00,0.0,meteohub,2013-03-18 13:24:00,
2013-03-18 06:29:00,45.5,43.9,30.00,WSW,244,2.0,5.0,94,0.00,,,0.00,0.0,meteohub,2013-03-18 13:29:00,
2013-03-18 06:34:00,45.5,43.9,30.00,SW,235,3.0,5.0,94,0.00,,,0.00,0.0,meteohub,2013-03-18 13:34:00,
2013-03-18 06:39:00,45.5,43.9,30.00,WSW,246,1.0,5.0,94,0.00,,,0.00,0.0,meteohub,2013-03-18 13:39:00,
2013-03-18 06:44:00,45.3,43.7,30.00,WSW,244,3.0,4.0,94,0.00,,,0.00,0.0,meteohub,2013-03-18 13:44:00,
2013-03-18 06:49:00,45.3,43.7,30.00,WSW,250,1.0,4.0,94,0.00,,,0.00,0.0,meteohub,2013-03-18 13:49:00,
2013-03-18 06:54:00,45.3,43.7,30.01,WSW,250,3.0,5.0,94,0.00,,,0.00,0.0,meteohub,2013-03-18 13:54:00,
2013-03-18 06:59:00,45.3,43.7,30.01,West,259,2.0,5.0,94,0.00,,,0.00,0.0,meteohub,2013-03-18 13:59:00,
2013-03-18 07:04:00,45.5,43.9,30.00,WSW,244,3.0,6.0,94,0.00,,,0.00,0.0,meteohub,2013-03-18 14:04:00,
2013-03-18 07:09:00,45.5,43.9,30.01,WSW,241,0.0,6.0,94,0.00,,,0.00,0.0,meteohub,2013-03-18 14:09:00,
2013-03-18 07:14:00,45.5,43.9,30.01,WSW,253,1.0,6.0,94,0.00,,,0.00,5.0,meteohub,2013-03-18 14:14:00,
2013-03-18 07:19:00,45.7,44.4,30.01,West,268,2.0,5.0,95,0.00,,,0.00,7.0,meteohub,2013-03-18 14:19:00,
2013-03-18 07:24:00,45.7,44.4,30.02,West,275,3.0,5.0,95,0.00,,,0.00,11.0,meteohub,2013-03-18 14:24:00,
2013-03-18 07:29:00,45.9,44.4,30.02,WSW,252,2.0,5.0,95,0.00,,,0.00,16.0,meteohub,2013-03-18 14:29:00,
2013-03-18 07:34:00,45.9,44.4,30.02,WNW,290,2.0,4.0,95,0.00,,,0.00,23.0,meteohub,2013-03-18 14:34:00,
2013-03-18 07:39:00,46.0,44.4,30.02,WSW,253,1.0,4.0,94,0.00,,,0.00,30.0,meteohub,2013-03-18 14:39:00,
2013-03-18 07:44:00,46.2,44.6,30.03,West,261,1.0,4.0,94,0.00,,,0.00,44.0,meteohub,2013-03-18 14:44:00,
2013-03-18 07:49:00,46.4,44.8,30.03,West,261,2.0,5.0,94,0.00,,,0.00,62.0,meteohub,2013-03-18 14:49:00,
2013-03-18 07:54:00,46.6,45.0,30.03,WSW,246,0.0,5.0,94,0.00,,,0.00,81.0,meteohub,2013-03-18 14:54:00,
2013-03-18 07:59:00,46.8,45.1,30.03,WSW,245,1.0,4.0,94,0.00,,,0.00,100.0,meteohub,2013-03-18 14:59:00,
2013-03-18 08:04:00,46.9,45.0,30.03,WSW,242,1.0,4.0,93,0.00,,,0.00,121.0,meteohub,2013-03-18 15:04:00,
2013-03-18 08:09:00,47.1,45.1,30.04,SW,233,2.0,4.0,93,0.00,,,0.00,139.0,meteohub,2013-03-18 15:09:00,
2013-03-18 08:14:00,47.5,45.5,30.03,WNW,290,1.0,6.0,93,0.00,,,0.00,151.0,meteohub,2013-03-18 15:14:00,
2013-03-18 08:19:00,47.8,45.7,30.03,West,269,1.0,6.0,92,0.00,,,0.00,139.0,meteohub,2013-03-18 15:19:00,
2013-03-18 08:24:00,48.2,45.7,30.03,WSW,252,0.0,6.0,91,0.00,,,0.00,142.0,meteohub,2013-03-18 15:24:00,
2013-03-18 08:29:00,47.8,45.3,30.03,WSW,240,1.0,5.0,91,0.00,,,0.00,95.0,meteohub,2013-03-18 15:29:00,
2013-03-18 08:35:00,47.8,45.0,30.03,WSW,248,1.0,5.0,90,0.00,,,0.00,232.0,meteohub,2013-03-18 15:35:00,
2013-03-18 08:40:00,48.0,45.1,30.04,WSW,242,0.0,5.0,90,0.00,,,0.00,206.0,meteohub,2013-03-18 15:40:00,
2013-03-18 08:45:00,48.6,45.5,30.03,WSW,255,1.0,5.0,89,0.00,,,0.00,239.0,meteohub,2013-03-18 15:45:00,
2013-03-18 08:50:00,48.7,45.7,30.04,West,273,2.0,5.0,89,0.00,,,0.00,243.0,meteohub,2013-03-18 15:50:00,
2013-03-18 08:55:00,48.9,45.9,30.04,WNW,282,1.0,4.0,89,0.00,,,0.00,200.0,meteohub,2013-03-18 15:55:00,
2013-03-18 09:00:00,48.9,45.5,30.04,WSW,254,4.0,4.0,88,0.00,,,0.00,181.0,meteohub,2013-03-18 16:00:00,
2013-03-18 09:05:00,48.9,45.9,30.04,WSW,252,2.0,4.0,89,0.00,,,0.00,304.0,meteohub,2013-03-18 16:05:00,
2013-03-18 09:10:00,49.6,46.2,30.04,WSW,242,3.0,5.0,88,0.00,,,0.00,353.0,meteohub,2013-03-18 16:10:00,
2013-03-18 09:15:00,50.2,46.8,30.04,West,261,1.0,5.0,88,0.00,,,0.00,294.0,meteohub,2013-03-18 16:15:00,
2013-03-18 09:20:00,50.5,46.8,30.04,SW,231,0.0,5.0,87,0.00,,,0.00,320.0,meteohub,2013-03-18 16:20:00,
2013-03-18 09:25:00,51.4,46.8,30.04,West,265,0.0,5.0,84,0.00,,,0.00,260.0,meteohub,2013-03-18 16:25:00,
2013-03-18 09:30:00,50.7,46.0,30.04,SW,229,0.0,4.0,84,0.00,,,0.00,209.0,meteohub,2013-03-18 16:30:00,
2013-03-18 09:35:00,50.7,46.4,30.04,West,274,3.0,3.0,85,0.00,,,0.00,195.0,meteohub,2013-03-18 16:35:00,
2013-03-18 09:40:00,50.9,46.2,30.04,West,274,0.0,4.0,84,0.00,,,0.00,199.0,meteohub,2013-03-18 16:40:00,
2013-03-18 09:45:00,51.1,46.4,30.04,SSE,164,2.0,4.0,84,0.00,,,0.00,214.0,meteohub,2013-03-18 16:45:00,
2013-03-18 09:50:00,50.7,46.0,30.05,SW,236,1.0,4.0,84,0.00,,,0.00,223.0,meteohub,2013-03-18 16:50:00,
2013-03-18 09:55:00,51.3,46.0,30.05,WSW,237,2.0,4.0,82,0.00,,,0.00,248.0,meteohub,2013-03-18 16:55:00,
2013-03-18 10:00:00,51.4,46.4,30.05,WSW,240,3.0,4.0,83,0.00,,,0.00,348.0,meteohub,2013-03-18 17:00:00,
2013-03-18 10:05:00,51.6,46.6,30.05,SW,234,3.0,6.0,83,0.00,,,0.00,374.0,meteohub,2013-03-18 17:05:00,
2013-03-18 10:10:00,52.0,46.6,30.05,WSW,246,2.0,6.0,82,0.00,,,0.00,360.0,meteohub,2013-03-18 17:10:00,
2013-03-18 10:15:00,52.0,46.9,30.05,West,278,4.0,9.0,83,0.00,,,0.00,346.0,meteohub,2013-03-18 17:15:00,
2013-03-18 10:20:00,51.6,46.6,30.05,West,277,3.0,9.0,83,0.00,,,0.00,295.0,meteohub,2013-03-18 17:20:00,
2013-03-18 10:25:00,51.4,46.8,30.05,West,267,2.0,8.0,84,0.00,,,0.00,330.0,meteohub,2013-03-18 17:25:00,
2013-03-18 10:30:00,51.6,46.2,30.04,West,278,3.0,8.0,82,0.00,,,0.00,357.0,meteohub,2013-03-18 17:30:00,
2013-03-18 10:35:00,51.6,46.2,30.04,WSW,258,6.0,10.0,82,0.00,,,0.00,411.0,meteohub,2013-03-18 17:35:00,
2013-03-18 10:40:00,52.2,46.8,30.05,SW,225,5.0,10.0,82,0.00,,,0.00,418.0,meteohub,2013-03-18 17:40:00,
2013-03-18 10:45:00,52.2,46.6,30.05,West,272,4.0,10.0,81,0.00,,,0.00,406.0,meteohub,2013-03-18 17:45:00,
2013-03-18 10:50:00,52.2,46.6,30.05,WNW,303,5.0,10.0,81,0.00,,,0.00,438.0,meteohub,2013-03-18 17:50:00,
2013-03-18 10:55:00,52.2,46.6,30.06,SW,220,10.0,10.0,81,0.00,,,0.00,478.0,meteohub,2013-03-18 17:55:00,
2013-03-18 11:00:00,52.2,46.6,30.05,WNW,298,3.0,12.0,81,0.00,,,0.00,485.0,meteohub,2013-03-18 18:00:00,
2013-03-18 11:05:00,52.3,46.0,30.05,SW,229,6.0,12.0,79,0.00,,,0.00,506.0,meteohub,2013-03-18 18:05:00,
2013-03-18 11:10:00,52.0,46.4,30.05,SSW,202,1.0,13.0,81,0.00,,,0.00,522.0,meteohub,2013-03-18 18:10:00,
2013-03-18 11:15:00,52.5,46.2,30.05,SSE,153,9.0,14.0,79,0.00,,,0.00,636.0,meteohub,2013-03-18 18:15:00,
2013-03-18 11:20:00,51.8,46.2,30.06,SW,225,5.0,14.0,81,0.00,,,0.00,504.0,meteohub,2013-03-18 18:20:00,
2013-03-18 11:25:00,52.2,46.8,30.06,WSW,247,11.0,16.0,82,0.00,,,0.00,462.0,meteohub,2013-03-18 18:25:00,
2013-03-18 11:30:00,51.6,46.2,30.05,SW,217,9.0,16.0,82,0.00,,,0.00,476.0,meteohub,2013-03-18 18:30:00,
2013-03-18 11:35:00,52.0,46.6,30.05,SW,225,4.0,15.0,82,0.00,,,0.00,601.0,meteohub,2013-03-18 18:35:00,
2013-03-18 11:40:00,52.5,46.6,30.05,West,280,5.0,15.0,80,0.00,,,0.00,650.0,meteohub,2013-03-18 18:40:00,
2013-03-18 11:45:00,52.5,46.6,30.05,WSW,244,7.0,14.0,80,0.00,,,0.00,570.0,meteohub,2013-03-18 18:45:00,
2013-03-18 11:50:00,53.2,46.9,30.05,WSW,253,7.0,14.0,79,0.00,,,0.00,608.0,meteohub,2013-03-18 18:50:00,
2013-03-18 11:55:00,52.9,46.6,30.05,WSW,243,9.0,16.0,79,0.00,,,0.00,510.0,meteohub,2013-03-18 18:55:00,
2013-03-18 12:00:00,52.5,46.6,30.05,WSW,237,11.0,16.0,80,0.00,,,0.00,531.0,meteohub,2013-03-18 19:00:00,
2013-03-18 12:05:00,52.5,46.6,30.05,West,271,2.0,16.0,80,0.00,,,0.00,534.0,meteohub,2013-03-18 19:05:00,
2013-03-18 12:10:00,53.2,46.6,30.05,South,178,6.0,16.0,78,0.00,,,0.00,512.0,meteohub,2013-03-18 19:10:00,
2013-03-18 12:15:00,53.2,46.9,30.05,WSW,248,2.0,16.0,79,0.00,,,0.00,682.0,meteohub,2013-03-18 19:15:00,
2013-03-18 12:20:00,53.8,46.8,30.04,West,279,4.0,16.0,77,0.00,,,0.00,759.0,meteohub,2013-03-18 19:20:00,
2013-03-18 12:25:00,53.6,46.2,30.04,SW,231,5.0,16.0,76,0.00,,,0.00,780.0,meteohub,2013-03-18 19:25:00,
2013-03-18 12:30:00,54.7,46.9,30.04,SW,231,3.0,11.0,75,0.00,,,0.00,795.0,meteohub,2013-03-18 19:30:00,
2013-03-18 12:35:00,55.0,46.2,30.04,WSW,238,6.0,10.0,72,0.00,,,0.00,603.0,meteohub,2013-03-18 19:35:00,
2013-03-18 12:41:00,55.2,44.8,30.04,SW,232,10.0,12.0,68,0.00,,,0.00,557.0,meteohub,2013-03-18 19:41:00,
2013-03-18 12:46:00,55.4,45.0,30.04,WSW,238,7.0,12.0,68,0.00,,,0.00,737.0,meteohub,2013-03-18 19:46:00,
2013-03-18 12:51:00,55.9,46.8,30.03,SW,215,7.0,11.0,71,0.00,,,0.00,613.0,meteohub,2013-03-18 19:51:00,
2013-03-18 12:56:00,56.5,46.0,30.03,SSW,213,4.0,14.0,68,0.00,,,0.00,603.0,meteohub,2013-03-18 19:56:00,
2013-03-18 13:01:00,56.5,46.4,30.03,West,259,2.0,14.0,69,0.00,,,0.00,661.0,meteohub,2013-03-18 20:01:00,
2013-03-18 13:06:00,56.7,45.5,30.03,WSW,247,5.0,14.0,66,0.00,,,0.00,652.0,meteohub,2013-03-18 20:06:00,
2013-03-18 13:11:00,56.8,46.0,30.03,West,268,1.0,10.0,67,0.00,,,0.00,721.0,meteohub,2013-03-18 20:11:00,
2013-03-18 13:16:00,57.0,46.2,30.03,SW,223,11.0,14.0,67,0.00,,,0.00,543.0,meteohub,2013-03-18 20:16:00,
2013-03-18 13:21:00,57.2,46.8,30.02,SW,218,4.0,14.0,68,0.00,,,0.00,640.0,meteohub,2013-03-18 20:21:00,
2013-03-18 13:26:00,57.7,46.9,30.02,WNW,284,2.0,14.0,67,0.00,,,0.00,677.0,meteohub,2013-03-18 20:26:00,
2013-03-18 13:31:00,58.3,46.2,30.01,WSW,241,3.0,14.0,64,0.00,,,0.00,666.0,meteohub,2013-03-18 20:31:00,
2013-03-18 13:36:00,58.5,46.8,30.01,SSW,211,3.0,9.0,65,0.00,,,0.00,513.0,meteohub,2013-03-18 20:36:00,
2013-03-18 13:42:00,58.5,46.8,30.01,WNW,282,2.0,9.0,65,0.00,,,0.00,420.0,meteohub,2013-03-18 20:42:00,
2013-03-18 13:47:00,58.8,47.1,30.01,West,279,1.0,9.0,65,0.00,,,0.00,403.0,meteohub,2013-03-18 20:47:00,
2013-03-18 13:52:00,57.7,46.9,30.01,West,267,4.0,10.0,67,0.00,,,0.00,381.0,meteohub,2013-03-18 20:52:00,
2013-03-18 13:57:00,56.8,46.4,30.01,WSW,254,2.0,11.0,68,0.00,,,0.00,399.0,meteohub,2013-03-18 20:57:00,
2013-03-18 14:02:00,57.0,45.9,30.01,West,262,4.0,11.0,66,0.00,,,0.00,403.0,meteohub,2013-03-18 21:02:00,
2013-03-18 14:07:00,56.8,45.7,30.01,WNW,292,12.0,12.0,66,0.00,,,0.00,380.0,meteohub,2013-03-18 21:07:00,
2013-03-18 14:12:00,56.3,45.9,30.01,WNW,292,10.0,13.0,68,0.00,,,0.00,396.0,meteohub,2013-03-18 21:12:00,
2013-03-18 14:17:00,55.8,46.0,30.00,West,275,7.0,13.0,70,0.00,,,0.00,383.0,meteohub,2013-03-18 21:17:00,
2013-03-18 14:22:00,54.9,46.0,30.00,West,265,3.0,13.0,72,0.00,,,0.00,394.0,meteohub,2013-03-18 21:22:00,
2013-03-18 14:27:00,55.2,46.4,30.00,West,267,8.0,12.0,72,0.00,,,0.00,373.0,meteohub,2013-03-18 21:27:00,
2013-03-18 14:32:00,54.9,46.4,30.00,WNW,298,0.0,14.0,73,0.00,,,0.00,369.0,meteohub,2013-03-18 21:32:00,
2013-03-18 14:37:00,55.0,46.6,30.00,WNW,294,2.0,14.0,73,0.00,,,0.00,381.0,meteohub,2013-03-18 21:37:00,
2013-03-18 14:42:00,54.7,45.9,30.00,West,260,2.0,14.0,72,0.00,,,0.00,374.0,meteohub,2013-03-18 21:42:00,
2013-03-18 14:43:00,54.7,46.6,30.00,SSW,192,2.0,14.0,74,0.00,,,0.00,360.0,meteohub,2013-03-18 21:43:00,
2013-03-18 14:52:00,55.0,46.6,29.99,WSW,248,2.0,7.0,73,0.00,,,0.00,323.0,meteohub,2013-03-18 21:52:00,
2013-03-18 14:58:00,54.5,46.0,30.00,WNW,284,5.0,10.0,73,0.00,,,0.00,332.0,meteohub,2013-03-18 21:58:00,
2013-03-18 15:03:00,54.1,46.4,30.00,West,266,2.0,12.0,75,0.00,,,0.00,346.0,meteohub,2013-03-18 22:03:00,
2013-03-18 15:08:00,54.7,46.6,30.00,WNW,298,7.0,13.0,74,0.00,,,0.00,294.0,meteohub,2013-03-18 22:08:00,
2013-03-18 15:13:00,54.5,46.0,29.99,West,266,1.0,13.0,73,0.00,,,0.00,294.0,meteohub,2013-03-18 22:13:00,
2013-03-18 15:18:00,54.7,46.6,29.99,West,267,3.0,13.0,74,0.00,,,0.00,313.0,meteohub,2013-03-18 22:18:00,
2013-03-18 15:23:00,54.1,46.0,29.99,SW,236,3.0,11.0,74,0.00,,,0.00,452.0,meteohub,2013-03-18 22:23:00,
2013-03-18 15:28:00,54.7,46.9,29.99,West,270,4.0,11.0,75,0.00,,,0.00,454.0,meteohub,2013-03-18 22:28:00,
2013-03-18 15:33:00,54.5,46.4,29.99,SW,227,6.0,11.0,74,0.00,,,0.00,378.0,meteohub,2013-03-18 22:33:00,
2013-03-18 15:38:00,54.7,46.9,29.99,SW,227,8.0,12.0,75,0.00,,,0.00,489.0,meteohub,2013-03-18 22:38:00,
2013-03-18 15:43:00,55.0,46.6,29.99,South,190,6.0,12.0,73,0.00,,,0.00,496.0,meteohub,2013-03-18 22:43:00,
2013-03-18 15:48:00,55.6,47.5,29.99,SSW,201,9.0,12.0,74,0.00,,,0.00,722.0,meteohub,2013-03-18 22:48:00,
2013-03-18 15:53:00,56.7,46.9,29.99,WNW,291,6.0,14.0,70,0.00,,,0.00,647.0,meteohub,2013-03-18 22:53:00,
2013-03-18 15:58:00,57.4,47.3,29.99,SW,221,5.0,14.0,69,0.00,,,0.00,378.0,meteohub,2013-03-18 22:58:00,
2013-03-18 16:03:00,55.9,46.8,29.99,SW,214,8.0,12.0,71,0.00,,,0.00,334.0,meteohub,2013-03-18 23:03:00,
2013-03-18 16:08:00,55.4,46.6,29.98,SW,227,0.0,13.0,72,0.00,,,0.00,345.0,meteohub,2013-03-18 23:08:00,
2013-03-18 16:13:00,55.8,47.3,29.99,WSW,240,2.0,13.0,73,0.00,,,0.00,364.0,meteohub,2013-03-18 23:13:00,
2013-03-18 16:18:00,55.6,47.1,29.98,SSW,194,2.0,12.0,73,0.00,,,0.00,251.0,meteohub,2013-03-18 23:18:00,
2013-03-18 16:24:00,55.0,46.6,29.99,WNW,293,3.0,12.0,73,0.00,,,0.00,262.0,meteohub,2013-03-18 23:24:00,
2013-03-18 16:29:00,54.9,46.4,29.99,WNW,298,0.0,12.0,73,0.00,,,0.00,272.0,meteohub,2013-03-18 23:29:00,
2013-03-18 16:34:00,54.3,46.2,29.99,NW,309,4.0,12.0,74,0.00,,,0.00,216.0,meteohub,2013-03-18 23:34:00,
2013-03-18 16:39:00,54.1,46.4,29.99,SW,223,4.0,12.0,75,0.00,,,0.00,213.0,meteohub,2013-03-18 23:39:00,
2013-03-18 16:44:00,54.3,46.2,29.98,WSW,248,3.0,12.0,74,0.00,,,0.00,214.0,meteohub,2013-03-18 23:44:00,
2013-03-18 16:49:00,54.1,46.0,29.98,SW,221,1.0,7.0,74,0.00,,,0.00,223.0,meteohub,2013-03-18 23:49:00,
2013-03-18 16:54:00,54.7,46.2,29.98,West,263,4.0,8.0,73,0.00,,,0.00,195.0,meteohub,2013-03-18 23:54:00,
2013-03-18 16:59:00,54.1,46.0,29.99,WNW,282,9.0,9.0,74,0.00,,,0.00,192.0,meteohub,2013-03-18 23:59:00,
2013-03-18 17:04:00,54.1,46.0,29.99,WSW,242,2.0,10.0,74,0.00,,,0.00,195.0,meteohub,2013-03-19 00:04:00,
2013-03-18 17:09:00,54.1,46.4,29.98,West,277,8.0,10.0,75,0.00,,,0.00,202.0,meteohub,2013-03-19 00:09:00,
2013-03-18 17:14:00,54.0,45.9,29.98,SW,229,9.0,10.0,74,0.00,,,0.00,202.0,meteohub,2013-03-19 00:14:00,
2013-03-18 17:19:00,53.6,45.5,29.98,WSW,246,5.0,9.0,74,0.00,,,0.00,204.0,meteohub,2013-03-19 00:19:00,
2013-03-18 17:24:00,53.4,45.3,29.98,WSW,243,6.0,11.0,74,0.00,,,0.00,207.0,meteohub,2013-03-19 00:24:00,
2013-03-18 17:29:00,53.2,45.1,29.98,WSW,241,2.0,11.0,74,0.00,,,0.00,197.0,meteohub,2013-03-19 00:29:00,
2013-03-18 17:34:00,53.2,44.8,29.98,WNW,290,2.0,11.0,73,0.00,,,0.00,183.0,meteohub,2013-03-19 00:34:00,
2013-03-18 17:39:00,53.1,45.0,29.98,SW,227,3.0,11.0,74,0.00,,,0.00,163.0,meteohub,2013-03-19 00:39:00,
2013-03-18 17:44:00,53.2,45.1,29.98,SW,233,1.0,10.0,74,0.00,,,0.00,148.0,meteohub,2013-03-19 00:44:00,
2013-03-18 17:49:00,53.6,45.5,29.99,WSW,252,1.0,10.0,74,0.00,,,0.00,134.0,meteohub,2013-03-19 00:49:00,
2013-03-18 17:54:00,53.2,45.1,29.99,WSW,238,5.0,9.0,74,0.00,,,0.00,125.0,meteohub,2013-03-19 00:54:00,
2013-03-18 17:59:00,52.5,44.8,29.99,WSW,248,4.0,8.0,75,0.00,,,0.00,113.0,meteohub,2013-03-19 00:59:00,
2013-03-18 18:04:00,52.2,45.1,29.99,WNW,296,3.0,10.0,77,0.00,,,0.00,102.0,meteohub,2013-03-19 01:04:00,
2013-03-18 18:09:00,52.2,45.1,29.99,SW,215,11.0,13.0,77,0.00,,,0.00,109.0,meteohub,2013-03-19 01:09:00,
2013-03-18 18:14:00,52.0,45.3,29.99,WSW,245,0.0,13.0,78,0.00,,,0.00,105.0,meteohub,2013-03-19 01:14:00,
2013-03-18 18:19:00,52.0,45.7,29.99,WSW,254,1.0,13.0,79,0.00,,,0.00,100.0,meteohub,2013-03-19 01:19:00,
2013-03-18 18:24:00,51.6,45.3,29.99,WSW,246,6.0,13.0,79,0.00,,,0.00,81.0,meteohub,2013-03-19 01:24:00,
2013-03-18 18:29:00,51.3,46.0,29.99,WSW,252,4.0,13.0,82,0.00,,,0.00,70.0,meteohub,2013-03-19 01:29:00,
2013-03-18 18:34:00,51.3,46.2,29.99,SSW,209,4.0,10.0,83,0.00,,,0.00,58.0,meteohub,2013-03-19 01:34:00,
2013-03-18 18:39:00,51.1,46.0,29.99,WNW,286,4.0,9.0,83,0.00,,,0.00,44.0,meteohub,2013-03-19 01:39:00,
2013-03-18 18:44:00,50.7,45.7,29.99,SW,221,2.0,10.0,83,0.00,,,0.00,39.0,meteohub,2013-03-19 01:44:00,
2013-03-18 18:49:00,50.5,45.9,29.99,WSW,246,2.0,10.0,84,0.00,,,0.00,30.0,meteohub,2013-03-19 01:49:00,
2013-03-18 18:54:00,50.4,46.0,30.00,SSW,196,6.0,12.0,85,0.00,,,0.00,19.0,meteohub,2013-03-19 01:54:00,
2013-03-18 18:59:00,50.2,46.2,30.00,SW,220,0.0,14.0,86,0.00,,,0.00,14.0,meteohub,2013-03-19 01:59:00,
2013-03-18 19:04:00,50.0,46.0,30.01,West,271,5.0,14.0,86,0.00,,,0.00,11.0,meteohub,2013-03-19 02:04:00,
2013-03-18 19:09:00,49.8,46.0,30.01,WSW,258,4.0,14.0,87,0.00,,,0.00,7.0,meteohub,2013-03-19 02:09:00,
2013-03-18 19:14:00,49.6,45.9,30.01,WSW,237,7.0,14.0,87,0.00,,,0.00,0.0,meteohub,2013-03-19 02:14:00,
2013-03-18 19:19:00,49.5,46.0,30.01,West,265,13.0,14.0,88,0.00,,,0.00,0.0,meteohub,2013-03-19 02:19:00,
2013-03-18 19:24:00,49.3,45.9,30.01,SW,221,5.0,14.0,88,0.00,,,0.00,0.0,meteohub,2013-03-19 02:24:00,
2013-03-18 19:29:00,49.1,45.7,30.02,West,275,2.0,15.0,88,0.00,,,0.00,0.0,meteohub,2013-03-19 02:29:00,
2013-03-18 19:34:00,48.9,45.9,30.02,West,265,6.0,15.0,89,0.00,,,0.00,0.0,meteohub,2013-03-19 02:34:00,
2013-03-18 19:39:00,48.9,45.9,30.02,WSW,246,4.0,15.0,89,0.00,,,0.00,0.0,meteohub,2013-03-19 02:39:00,
2013-03-18 19:44:00,48.9,46.0,30.03,SW,228,6.0,14.0,90,0.00,,,0.00,0.0,meteohub,2013-03-19 02:44:00,
2013-03-18 19:49:00,48.9,45.9,30.03,South,177,5.0,14.0,89,0.00,,,0.00,0.0,meteohub,2013-03-19 02:49:00,
2013-03-18 19:54:00,48.9,46.0,30.03,South,169,1.0,16.0,90,0.00,,,0.00,0.0,meteohub,2013-03-19 02:54:00,
2013-03-18 19:59:00,48.9,46.0,30.03,NW,310,5.0,16.0,90,0.00,,,0.00,0.0,meteohub,2013-03-19 02:59:00,
2013-03-18 20:05:00,48.9,46.0,30.03,SW,227,10.0,16.0,90,0.00,,,0.00,0.0,meteohub,2013-03-19 03:05:00,
2013-03-18 20:10:00,49.1,46.2,30.03,WNW,288,5.0,15.0,90,0.00,,,0.00,0.0,meteohub,2013-03-19 03:10:00,
2013-03-18 20:15:00,49.1,46.6,30.04,West,271,3.0,15.0,91,0.00,,,0.00,0.0,meteohub,2013-03-19 03:15:00,
2013-03-18 20:20:00,49.3,46.8,30.04,West,265,9.0,13.0,91,0.00,,,0.00,0.0,meteohub,2013-03-19 03:20:00,
2013-03-18 20:25:00,49.3,46.8,30.03,West,277,3.0,15.0,91,0.00,,,0.00,0.0,meteohub,2013-03-19 03:25:00,
2013-03-18 20:30:00,49.3,46.8,30.03,SSW,210,4.0,15.0,91,0.00,,,0.00,0.0,meteohub,2013-03-19 03:30:00,
2013-03-18 20:35:00,49.3,46.8,30.03,West,259,5.0,15.0,91,0.00,,,0.00,0.0,meteohub,2013-03-19 03:35:00,
2013-03-18 20:40:00,49.1,46.6,30.03,NW,313,7.0,14.0,91,0.00,,,0.00,0.0,meteohub,2013-03-19 03:40:00,
2013-03-18 20:45:00,48.9,46.4,30.03,WSW,258,3.0,14.0,91,0.00,,,0.00,0.0,meteohub,2013-03-19 03:45:00,
2013-03-18 20:50:00,48.9,46.4,30.03,WNW,284,4.0,16.0,91,0.00,,,0.00,0.0,meteohub,2013-03-19 03:50:00,
2013-03-18 20:55:00,48.9,46.4,30.03,WNW,282,6.0,16.0,91,0.00,,,0.00,0.0,meteohub,2013-03-19 03:55:00,
2013-03-18 21:00:00,48.9,46.4,30.03,West,268,10.0,13.0,91,0.00,,,0.00,0.0,meteohub,2013-03-19 04:00:00,
2013-03-18 21:01:00,48.9,46.4,30.03,WSW,242,4.0,13.0,91,0.00,,,0.00,0.0,meteohub,2013-03-19 04:01:00,
2013-03-18 21:02:00,48.9,46.4,30.03,SW,219,5.0,13.0,91,0.00,,,0.00,0.0,meteohub,2013-03-19 04:02:00,
2013-03-18 21:07:00,48.9,46.4,30.04,SSW,213,9.0,13.0,91,0.00,,,0.00,0.0,meteohub,2013-03-19 04:07:00,
2013-03-18 21:12:00,48.9,46.4,30.03,WSW,246,6.0,16.0,91,0.00,,,0.00,0.0,meteohub,2013-03-19 04:12:00,
2013-03-18 21:17:00,48.9,46.4,30.03,WNW,284,5.0,16.0,91,0.00,,,0.00,0.0,meteohub,2013-03-19 04:17:00,
2013-03-18 21:22:00,48.9,46.4,30.04,WNW,283,3.0,16.0,91,0.00,,,0.00,0.0,meteohub,2013-03-19 04:22:00,
2013-03-18 21:27:00,48.9,46.4,30.04,WNW,282,7.0,17.0,91,0.00,,,0.00,0.0,meteohub,2013-03-19 04:27:00,
2013-03-18 21:32:00,48.9,46.4,30.04,West,279,7.0,17.0,91,0.00,,,0.00,0.0,meteohub,2013-03-19 04:32:00,
2013-03-18 21:37:00,48.9,46.4,30.03,NW,309,5.0,17.0,91,0.00,,,0.00,0.0,meteohub,2013-03-19 04:37:00,
2013-03-18 21:42:00,48.9,46.4,30.03,South,190,4.0,14.0,91,0.00,,,0.00,0.0,meteohub,2013-03-19 04:42:00,
2013-03-18 21:47:00,48.9,46.4,30.03,NW,315,5.0,14.0,91,0.00,,,0.00,0.0,meteohub,2013-03-19 04:47:00,
2013-03-18 21:52:00,48.9,46.4,30.03,WNW,288,14.0,14.0,91,0.00,,,0.00,0.0,meteohub,2013-03-19 04:52:00,
2013-03-18 21:57:00,48.9,46.4,30.04,WSW,257,6.0,17.0,91,0.00,,,0.00,0.0,meteohub,2013-03-19 04:57:00,
2013-03-18 22:02:00,48.9,46.4,30.04,West,261,7.0,17.0,91,0.00,,,0.00,0.0,meteohub,2013-03-19 05:02:00,
2013-03-18 22:07:00,48.9,46.4,30.04,West,276,2.0,17.0,91,0.00,,,0.00,0.0,meteohub,2013-03-19 05:07:00,
2013-03-18 22:12:00,48.9,46.4,30.04,WNW,298,3.0,14.0,91,0.00,,,0.00,0.0,meteohub,2013-03-19 05:12:00,
2013-03-18 22:17:00,48.9,46.4,30.04,West,260,3.0,14.0,91,0.00,,,0.00,0.0,meteohub,2013-03-19 05:17:00,
2013-03-18 22:22:00,48.9,46.4,30.04,WNW,288,3.0,14.0,91,0.00,,,0.00,0.0,meteohub,2013-03-19 05:22:00,
2013-03-18 22:27:00,48.9,46.0,30.05,WNW,286,9.0,14.0,90,0.00,,,0.00,0.0,meteohub,2013-03-19 05:27:00,
2013-03-18 22:32:00,48.9,46.0,30.05,NW,321,5.0,13.0,90,0.00,,,0.00,0.0,meteohub,2013-03-19 05:32:00,
2013-03-18 22:37:00,48.9,46.0,30.05,NW,306,2.0,13.0,90,0.00,,,0.00,0.0,meteohub,2013-03-19 05:37:00,
2013-03-18 22:42:00,48.9,46.0,30.06,WNW,300,7.0,11.0,90,0.00,,,0.00,0.0,meteohub,2013-03-19 05:42:00,
2013-03-18 22:47:00,48.9,46.0,30.06,West,273,7.0,16.0,90,0.00,,,0.00,0.0,meteohub,2013-03-19 05:47:00,
2013-03-18 22:52:00,48.9,46.0,30.06,West,268,6.0,16.0,90,0.00,,,0.00,0.0,meteohub,2013-03-19 05:52:00,
2013-03-18 22:57:00,48.7,45.9,30.06,West,262,6.0,16.0,90,0.00,,,0.00,0.0,meteohub,2013-03-19 05:57:00,
2013-03-18 23:02:00,48.7,46.2,30.05,West,276,4.0,16.0,91,0.00,,,0.00,0.0,meteohub,2013-03-19 06:02:00,
2013-03-18 23:07:00,48.7,46.2,30.05,WNW,290,7.0,16.0,91,0.00,,,0.00,0.0,meteohub,2013-03-19 06:07:00,
2013-03-18 23:12:00,48.6,46.0,30.05,West,279,7.0,17.0,91,0.00,,,0.00,0.0,meteohub,2013-03-19 06:12:00,
2013-03-18 23:17:00,48.4,45.9,30.04,NW,313,6.0,17.0,91,0.00,,,0.00,0.0,meteohub,2013-03-19 06:17:00,
2013-03-18 23:22:00,48.4,46.2,30.04,West,267,3.0,17.0,92,0.00,,,0.00,0.0,meteohub,2013-03-19 06:22:00,
2013-03-18 23:27:00,48.0,45.9,30.04,SW,221,3.0,13.0,92,0.00,,,0.00,0.0,meteohub,2013-03-19 06:27:00,
2013-03-18 23:32:00,48.0,45.9,30.04,WSW,254,3.0,8.0,92,0.00,,,0.00,0.0,meteohub,2013-03-19 06:32:00,
2013-03-18 23:37:00,47.8,45.7,30.03,WSW,249,2.0,7.0,92,0.00,,,0.00,0.0,meteohub,2013-03-19 06:37:00,
2013-03-18 23:42:00,47.8,45.7,30.04,WSW,239,0.0,7.0,92,0.00,,,0.00,0.0,meteohub,2013-03-19 06:42:00,
2013-03-18 23:47:00,47.8,45.7,30.04,WSW,239,0.0,7.0,92,0.00,,,0.00,0.0,meteohub,2013-03-19 06:47:00,
2013-03-18 23:52:00,47.7,45.5,30.03,SW,235,4.0,7.0,92,0.00,,,0.00,0.0,meteohub,2013-03-19 06:52:00,
2013-03-18 23:57:00,47.7,45.5,30.04,WSW,240,0.0,6.0,92,0.00,,,0.00,0.0,meteohub,2013-03-19 06:57:00,